Regional Weather Roundup
Issued by NWS Goodland, KS

Home | Current Version | Previous Version | Text Only | Print | Product List | Glossary On
Versions: 1 2 3 4 5 6 7 8 9 10 11 12 13 14 15 16 17 18 19 20 21 22 23 24 25 26 27 28 29 30 31 32 33 34 35 36 37 38 39 40 41 42 43 44 45 46 47 48 49 50
000
ASUS43 KGLD 241208
RWRGLD

GOODLAND FORECAST AREA HOURLY WEATHER ROUNDUP
NATIONAL WEATHER SERVICE GOODLAND KS
600 AM MDT TUE MAY 24 2016

...OFFICIAL OBSERVATIONS...

CITY           SKY/WX    TMP DP  RH WIND       PRES   REMARKS
GOODLAND KS    PTCLDY    52  45  77 E7        29.88R
HILL CITY KS   TSTM      58  57  97 S6        29.90R FOG
IMPERIAL NEB   CLOUDY    55  48  77 W5        29.88R
MCCOOK NEB     CLOUDY    55  48  77 E5        29.86F
AKRON CO       CLOUDY    48  44  86 N5        29.94R
BURLINGTON CO  PTCLDY    53  41  63 NE10      29.92R
LIMON CO       MOCLDY    49  42  77 N6        29.96R
$$

...UNOFFICIAL OBSERVATIONS...

CITY           SKY/WX    TMP DP  RH WIND       PRES   REMARKS
COLBY KS       CLOUDY    55  55 100 NE7       29.90R
LENORA KS        N/A     58  32  37 MISG        N/A
NORTON KS      CLEAR     57  54  88 CALM      29.86F
SHARON SPRINGS   N/A     57  54  90 NE12G18     N/A
KIT CARSON CO    N/A     53  42  66 MISG        N/A
YUMA CO          N/A     51  48  91 CALM        N/A
$$



USA.gov is the U.S. government's official web portal to all federal, state and local government web resources and services.